Year,Month,Day,Hour,Minute,Value (Times are PST for temperature in C)
2015,09,28,00,00,10.50
2015,09,28,00,01,10.50
2015,09,28,00,02,10.60
2015,09,28,00,03,10.60
2015,09,28,00,04,10.60
2015,09,28,00,05,10.60
2015,09,28,00,06,10.60
2015,09,28,00,07,10.60
2015,09,28,00,08,10.60
2015,09,28,00,09,10.60
2015,09,28,00,10,10.70
2015,09,28,00,11,10.70
2015,09,28,00,12,10.70
2015,09,28,00,13,10.70
2015,09,28,00,14,10.70
2015,09,28,00,15,10.70
2015,09,28,00,16,10.70
2015,09,28,00,17,10.70
2015,09,28,00,18,10.70
2015,09,28,00,19,10.70
2015,09,28,00,20,10.70
2015,09,28,00,21,10.70
2015,09,28,00,22,10.70
2015,09,28,00,23,10.60
2015,09,28,00,24,10.60
2015,09,28,00,25,10.60
2015,09,28,00,26,10.60
2015,09,28,00,27,10.60
2015,09,28,00,28,10.60
2015,09,28,00,29,10.60
2015,09,28,00,30,10.60
2015,09,28,00,31,10.60
2015,09,28,00,32,10.60
2015,09,28,00,33,10.60
2015,09,28,00,34,10.60
2015,09,28,00,35,10.60
2015,09,28,00,36,10.60
2015,09,28,00,37,10.60
2015,09,28,00,38,10.60
2015,09,28,00,39,10.60
2015,09,28,00,40,10.60
2015,09,28,00,41,10.60
2015,09,28,00,42,10.60
2015,09,28,00,43,10.60
2015,09,28,00,44,10.60
2015,09,28,00,45,10.60
2015,09,28,00,46,10.60
2015,09,28,00,47,10.70
2015,09,28,00,48,10.70
2015,09,28,00,49,10.70
2015,09,28,00,50,10.70
2015,09,28,00,51,10.70
2015,09,28,00,52,10.70
2015,09,28,00,53,10.70
2015,09,28,00,54,10.70
2015,09,28,00,55,10.60
2015,09,28,00,56,10.60
2015,09,28,00,57,10.60
2015,09,28,00,58,10.60
2015,09,28,00,59,10.60
2015,09,28,01,00,10.60
2015,09,28,01,01,10.60
2015,09,28,01,02,10.60
2015,09,28,01,03,10.50
2015,09,28,01,04,10.50
2015,09,28,01,05,10.50
2015,09,28,01,06,10.50
2015,09,28,01,07,10.50
2015,09,28,01,08,10.50
2015,09,28,01,09,10.40
2015,09,28,01,10,10.40
2015,09,28,01,11,10.40
2015,09,28,01,12,10.40
2015,09,28,01,13,10.40
2015,09,28,01,14,10.40
2015,09,28,01,15,10.30
2015,09,28,01,16,10.30
2015,09,28,01,17,10.30
2015,09,28,01,18,10.30
2015,09,28,01,19,10.30
2015,09,28,01,20,10.30
2015,09,28,01,21,10.20
2015,09,28,01,22,10.20
2015,09,28,01,23,10.20
2015,09,28,01,24,10.20
2015,09,28,01,25,10.20
2015,09,28,01,26,10.20
2015,09,28,01,27,10.20
2015,09,28,01,28,10.20
2015,09,28,01,29,10.10
2015,09,28,01,30,10.10
2015,09,28,01,31,10.10
2015,09,28,01,32,10.10
2015,09,28,01,33,10.10
2015,09,28,01,34,10.10
2015,09,28,01,35,10.20
2015,09,28,01,36,10.20
2015,09,28,01,37,10.20
2015,09,28,01,38,10.20
2015,09,28,01,39,10.20
2015,09,28,01,40,10.20
2015,09,28,01,41,10.20
2015,09,28,01,42,10.20
2015,09,28,01,43,10.20
2015,09,28,01,44,10.20
2015,09,28,01,45,10.20
2015,09,28,01,46,10.20
2015,09,28,01,47,10.20
2015,09,28,01,48,10.20
2015,09,28,01,49,10.20
2015,09,28,01,50,10.20
2015,09,28,01,51,10.20
2015,09,28,01,52,10.10
2015,09,28,01,53,10.10
2015,09,28,01,54,10.10
2015,09,28,01,55,10.10
2015,09,28,01,56,10.10
2015,09,28,01,57,10.10
2015,09,28,01,58,10.10
2015,09,28,01,59,10.10
2015,09,28,02,00,10.10
2015,09,28,02,01,10.10
2015,09,28,02,02,10.10
2015,09,28,02,03,10.00
2015,09,28,02,04,10.00
2015,09,28,02,05,10.00
2015,09,28,02,06,10.00
2015,09,28,02,07,10.00
2015,09,28,02,08,10.00
2015,09,28,02,09,10.00
2015,09,28,02,10,10.00
2015,09,28,02,11,10.00
2015,09,28,02,12,10.00
2015,09,28,02,13,10.00
2015,09,28,02,14,10.00
2015,09,28,02,15,10.00
2015,09,28,02,16,10.00
2015,09,28,02,17,10.00
2015,09,28,02,18,10.00
2015,09,28,02,19,9.90
2015,09,28,02,20,9.90
2015,09,28,02,21,9.90
2015,09,28,02,22,9.90
2015,09,28,02,23,9.90
2015,09,28,02,24,9.90
2015,09,28,02,25,9.90
2015,09,28,02,26,9.90
2015,09,28,02,27,9.90
2015,09,28,02,28,9.90
2015,09,28,02,29,9.90
2015,09,28,02,30,9.80
2015,09,28,02,31,9.80
2015,09,28,02,32,9.80
2015,09,28,02,33,9.80
2015,09,28,02,34,9.70
2015,09,28,02,35,9.70
2015,09,28,02,36,9.70
2015,09,28,02,37,9.70
2015,09,28,02,38,9.60
2015,09,28,02,39,9.60
2015,09,28,02,40,9.60
2015,09,28,02,41,9.60
2015,09,28,02,42,9.60
2015,09,28,02,43,9.50
2015,09,28,02,44,9.50
2015,09,28,02,45,9.50
2015,09,28,02,46,9.50
2015,09,28,02,47,9.50
2015,09,28,02,48,9.50
2015,09,28,02,49,9.50
2015,09,28,02,50,9.50
2015,09,28,02,51,9.50
2015,09,28,02,52,9.50
2015,09,28,02,53,9.60
2015,09,28,02,54,9.60
2015,09,28,02,55,9.60
2015,09,28,02,56,9.60
2015,09,28,02,57,9.60
2015,09,28,02,58,9.60
2015,09,28,02,59,9.60
2015,09,28,03,00,9.60
2015,09,28,03,01,9.60
2015,09,28,03,02,9.60
2015,09,28,03,03,9.60
2015,09,28,03,04,9.60
2015,09,28,03,05,9.60
2015,09,28,03,06,9.60
2015,09,28,03,07,9.60
2015,09,28,03,08,9.60
2015,09,28,03,09,9.60
2015,09,28,03,10,9.60
2015,09,28,03,11,9.60
2015,09,28,03,12,9.60
2015,09,28,03,13,9.60
2015,09,28,03,14,9.60
2015,09,28,03,15,9.60
2015,09,28,03,16,9.60
2015,09,28,03,17,9.50
2015,09,28,03,18,9.50
2015,09,28,03,19,9.50
2015,09,28,03,20,9.40
2015,09,28,03,21,9.50
2015,09,28,03,22,9.50
2015,09,28,03,23,9.50
2015,09,28,03,24,9.40
2015,09,28,03,25,9.40
2015,09,28,03,26,9.40
2015,09,28,03,27,9.40
2015,09,28,03,28,9.40
2015,09,28,03,29,9.40
2015,09,28,03,30,9.40
2015,09,28,03,31,9.30
2015,09,28,03,32,9.30
2015,09,28,03,33,9.30
2015,09,28,03,34,9.30
2015,09,28,03,35,9.30
2015,09,28,03,36,9.30
2015,09,28,03,37,9.30
2015,09,28,03,38,9.40
2015,09,28,03,39,9.40
2015,09,28,03,40,9.40
2015,09,28,03,41,9.40
2015,09,28,03,42,9.40
2015,09,28,03,43,9.40
2015,09,28,03,44,9.40
2015,09,28,03,45,9.40
2015,09,28,03,46,9.40
2015,09,28,03,47,9.40
2015,09,28,03,48,9.40
2015,09,28,03,49,9.40
2015,09,28,03,50,9.40
2015,09,28,03,51,9.40
2015,09,28,03,52,9.40
2015,09,28,03,53,9.40
2015,09,28,03,54,9.40
2015,09,28,03,55,9.50
2015,09,28,03,56,9.50
2015,09,28,03,57,9.50
2015,09,28,03,58,9.50
2015,09,28,03,59,9.50
2015,09,28,04,00,9.40
2015,09,28,04,01,9.40
2015,09,28,04,02,9.40
2015,09,28,04,03,9.40
2015,09,28,04,04,9.40
2015,09,28,04,05,9.40
2015,09,28,04,06,9.40
2015,09,28,04,07,9.40
2015,09,28,04,08,9.40
2015,09,28,04,09,9.30
2015,09,28,04,10,9.30
2015,09,28,04,11,9.30
2015,09,28,04,12,9.30
2015,09,28,04,13,9.30
2015,09,28,04,14,9.30
2015,09,28,04,15,9.30
2015,09,28,04,16,9.30
2015,09,28,04,17,9.20
2015,09,28,04,18,9.20
2015,09,28,04,19,9.20
2015,09,28,04,20,9.20
2015,09,28,04,21,9.20
2015,09,28,04,22,9.20
2015,09,28,04,23,9.20
2015,09,28,04,24,9.10
2015,09,28,04,25,9.20
2015,09,28,04,26,9.20
2015,09,28,04,27,9.20
2015,09,28,04,28,9.20
2015,09,28,04,29,9.20
2015,09,28,04,30,9.20
2015,09,28,04,31,9.20
2015,09,28,04,32,9.20
2015,09,28,04,33,9.20
2015,09,28,04,34,9.20
2015,09,28,04,35,9.20
2015,09,28,04,36,9.20
2015,09,28,04,37,9.20
2015,09,28,04,38,9.20
2015,09,28,04,39,9.20
2015,09,28,04,40,9.20
2015,09,28,04,41,9.20
2015,09,28,04,42,9.20
2015,09,28,04,43,9.20
2015,09,28,04,44,9.20
2015,09,28,04,45,9.20
2015,09,28,04,46,9.20
2015,09,28,04,47,9.20
2015,09,28,04,48,9.20
2015,09,28,04,49,9.20
2015,09,28,04,50,9.10
2015,09,28,04,51,9.10
2015,09,28,04,52,9.10
2015,09,28,04,53,9.10
2015,09,28,04,54,9.10
2015,09,28,04,55,9.10
2015,09,28,04,56,9.00
2015,09,28,04,57,9.00
2015,09,28,04,58,9.00
2015,09,28,04,59,9.00
2015,09,28,05,00,8.90
2015,09,28,05,01,8.90
2015,09,28,05,02,8.90
2015,09,28,05,03,8.90
2015,09,28,05,04,8.90
2015,09,28,05,05,8.90
2015,09,28,05,06,8.90
2015,09,28,05,07,8.90
2015,09,28,05,08,8.90
2015,09,28,05,09,8.90
2015,09,28,05,10,8.90
2015,09,28,05,11,8.90
2015,09,28,05,12,8.90
2015,09,28,05,13,8.90
2015,09,28,05,14,8.90
2015,09,28,05,15,8.90
2015,09,28,05,16,8.90
2015,09,28,05,17,9.00
2015,09,28,05,18,9.00
2015,09,28,05,19,9.00
2015,09,28,05,20,9.00
2015,09,28,05,21,9.10
2015,09,28,05,22,9.10
2015,09,28,05,23,9.10
2015,09,28,05,24,9.10
2015,09,28,05,25,9.10
2015,09,28,05,26,9.10
2015,09,28,05,27,9.10
2015,09,28,05,28,9.10
2015,09,28,05,29,9.10
2015,09,28,05,30,9.10
2015,09,28,05,31,9.10
2015,09,28,05,32,9.10
2015,09,28,05,33,9.10
2015,09,28,05,34,9.20
2015,09,28,05,35,9.20
2015,09,28,05,36,9.20
2015,09,28,05,37,9.20
2015,09,28,05,38,9.20
2015,09,28,05,39,9.20
2015,09,28,05,40,9.20
2015,09,28,05,41,9.30
2015,09,28,05,42,9.30
2015,09,28,05,43,9.30
2015,09,28,05,44,9.20
2015,09,28,05,45,9.20
2015,09,28,05,46,9.20
2015,09,28,05,47,9.30
2015,09,28,05,48,9.30
2015,09,28,05,49,9.20
2015,09,28,05,50,9.20
2015,09,28,05,51,9.20
2015,09,28,05,52,9.20
2015,09,28,05,53,9.20
2015,09,28,05,54,9.20
2015,09,28,05,55,9.20
2015,09,28,05,56,9.30
2015,09,28,05,57,9.30
2015,09,28,05,58,9.30
2015,09,28,05,59,9.30
2015,09,28,06,00,9.20
2015,09,28,06,01,9.20
2015,09,28,06,02,9.20
2015,09,28,06,03,9.20
2015,09,28,06,04,9.20
2015,09,28,06,05,9.20
2015,09,28,06,06,9.10
2015,09,28,06,07,9.10
2015,09,28,06,08,9.10
2015,09,28,06,09,9.10
2015,09,28,06,10,9.10
2015,09,28,06,11,9.10
2015,09,28,06,12,9.10
2015,09,28,06,13,9.10
2015,09,28,06,14,9.10
2015,09,28,06,15,9.10
2015,09,28,06,16,9.10
2015,09,28,06,17,9.10
2015,09,28,06,18,9.10
2015,09,28,06,19,9.10
2015,09,28,06,20,9.10
2015,09,28,06,21,9.10
2015,09,28,06,22,9.10
2015,09,28,06,23,9.10
2015,09,28,06,24,9.10
2015,09,28,06,25,9.10
2015,09,28,06,26,9.10
2015,09,28,06,27,9.10
2015,09,28,06,28,9.00
2015,09,28,06,29,9.00
2015,09,28,06,30,9.00
2015,09,28,06,31,9.00
2015,09,28,06,32,9.00
2015,09,28,06,33,8.90
2015,09,28,06,34,8.90
2015,09,28,06,35,8.90
2015,09,28,06,36,8.90
2015,09,28,06,37,8.90
2015,09,28,06,38,8.90
2015,09,28,06,39,8.90
2015,09,28,06,40,8.90
2015,09,28,06,41,8.90
2015,09,28,06,42,8.90
2015,09,28,06,43,8.90
2015,09,28,06,44,8.90
2015,09,28,06,45,8.90
2015,09,28,06,46,8.90
2015,09,28,06,47,8.80
2015,09,28,06,48,8.80
2015,09,28,06,49,8.80
2015,09,28,06,50,8.80
2015,09,28,06,51,8.80
2015,09,28,06,52,8.90
2015,09,28,06,53,8.90
2015,09,28,06,54,9.00
2015,09,28,06,55,9.00
2015,09,28,06,56,9.00
2015,09,28,06,57,9.00
2015,09,28,06,58,9.10
2015,09,28,06,59,9.10
2015,09,28,07,00,9.10
2015,09,28,07,01,9.00
2015,09,28,07,02,9.00
2015,09,28,07,03,9.00
2015,09,28,07,04,8.90
2015,09,28,07,05,8.90
2015,09,28,07,06,8.90
2015,09,28,07,07,8.90
2015,09,28,07,08,8.90
2015,09,28,07,09,8.90
2015,09,28,07,10,8.90
2015,09,28,07,11,8.90
2015,09,28,07,12,8.80
2015,09,28,07,13,8.80
2015,09,28,07,14,8.80
2015,09,28,07,15,8.80
2015,09,28,07,16,8.80
2015,09,28,07,17,8.80
2015,09,28,07,18,8.80
2015,09,28,07,19,8.80
2015,09,28,07,20,8.80
2015,09,28,07,21,8.80
2015,09,28,07,22,8.80
2015,09,28,07,23,8.80
2015,09,28,07,24,8.80
2015,09,28,07,25,8.80
2015,09,28,07,26,8.80
2015,09,28,07,27,8.80
2015,09,28,07,28,8.80
2015,09,28,07,29,8.80
2015,09,28,07,30,8.80
2015,09,28,07,31,8.80
2015,09,28,07,32,8.80
2015,09,28,07,33,8.80
2015,09,28,07,34,8.80
2015,09,28,07,35,8.80
2015,09,28,07,36,8.80
2015,09,28,07,37,8.80
2015,09,28,07,38,8.80
2015,09,28,07,39,8.80
2015,09,28,07,40,8.80
2015,09,28,07,41,8.80
2015,09,28,07,42,8.80
2015,09,28,07,43,8.80
2015,09,28,07,44,8.80
2015,09,28,07,45,8.80
2015,09,28,07,46,8.70
2015,09,28,07,47,8.70
2015,09,28,07,48,8.70
2015,09,28,07,49,8.70
2015,09,28,07,50,8.70
2015,09,28,07,51,8.70
2015,09,28,07,52,8.70
2015,09,28,07,53,8.80
2015,09,28,07,54,8.80
2015,09,28,07,55,8.80
2015,09,28,07,56,8.80
2015,09,28,07,57,8.80
2015,09,28,07,58,8.80
2015,09,28,07,59,8.80
2015,09,28,08,00,8.80
2015,09,28,08,01,8.80
2015,09,28,08,02,8.80
2015,09,28,08,03,8.80
2015,09,28,08,04,8.80
2015,09,28,08,05,8.80
2015,09,28,08,06,8.90
2015,09,28,08,07,8.90
2015,09,28,08,08,8.90
2015,09,28,08,09,8.90
2015,09,28,08,10,8.90
2015,09,28,08,11,9.00
2015,09,28,08,12,9.00
2015,09,28,08,13,9.00
2015,09,28,08,14,9.00
2015,09,28,08,15,9.00
2015,09,28,08,16,9.10
2015,09,28,08,17,9.10
2015,09,28,08,18,9.10
2015,09,28,08,19,9.10
2015,09,28,08,20,9.10
2015,09,28,08,21,9.10
2015,09,28,08,22,9.10
2015,09,28,08,23,9.20
2015,09,28,08,24,9.20
2015,09,28,08,25,9.20
2015,09,28,08,26,9.20
2015,09,28,08,27,9.20
2015,09,28,08,28,9.20
2015,09,28,08,29,9.20
2015,09,28,08,30,9.30
2015,09,28,08,31,9.30
2015,09,28,08,32,9.30
2015,09,28,08,33,9.30
2015,09,28,08,34,9.40
2015,09,28,08,35,9.40
2015,09,28,08,36,9.40
2015,09,28,08,37,9.50
2015,09,28,08,38,9.50
2015,09,28,08,39,9.60
2015,09,28,08,40,9.60
2015,09,28,08,41,9.60
2015,09,28,08,42,9.60
2015,09,28,08,43,9.70
2015,09,28,08,44,9.70
2015,09,28,08,45,9.70
2015,09,28,08,46,9.70
2015,09,28,08,47,9.70
2015,09,28,08,48,9.80
2015,09,28,08,49,9.80
2015,09,28,08,50,9.80
2015,09,28,08,51,9.80
2015,09,28,08,52,9.90
2015,09,28,08,53,9.90
2015,09,28,08,54,9.90
2015,09,28,08,55,10.00
2015,09,28,08,56,10.00
2015,09,28,08,57,10.00
2015,09,28,08,58,10.10
2015,09,28,08,59,10.10
2015,09,28,09,00,10.10
2015,09,28,09,01,10.10
2015,09,28,09,02,10.20
2015,09,28,09,03,10.20
2015,09,28,09,04,10.20
2015,09,28,09,05,10.30
2015,09,28,09,06,10.30
2015,09,28,09,07,10.30
2015,09,28,09,08,10.30
2015,09,28,09,09,10.40
2015,09,28,09,10,10.40
2015,09,28,09,11,10.50
2015,09,28,09,12,10.60
2015,09,28,09,13,10.60
2015,09,28,09,14,10.60
2015,09,28,09,15,10.70
2015,09,28,09,16,10.70
2015,09,28,09,17,10.80
2015,09,28,09,18,10.80
2015,09,28,09,19,10.90
2015,09,28,09,20,11.00
2015,09,28,09,21,11.00
2015,09,28,09,22,11.10
2015,09,28,09,23,11.10
2015,09,28,09,24,11.20
2015,09,28,09,25,11.20
2015,09,28,09,26,11.30
2015,09,28,09,27,11.30
2015,09,28,09,28,11.30
2015,09,28,09,29,11.40
2015,09,28,09,30,11.40
2015,09,28,09,31,11.40
2015,09,28,09,32,11.50
2015,09,28,09,33,11.50
2015,09,28,09,34,11.60
2015,09,28,09,35,11.60
2015,09,28,09,36,11.70
2015,09,28,09,37,11.70
2015,09,28,09,38,11.80
2015,09,28,09,39,11.80
2015,09,28,09,40,11.80
2015,09,28,09,41,11.80
2015,09,28,09,42,11.80
2015,09,28,09,43,11.90
2015,09,28,09,44,12.00
2015,09,28,09,45,12.00
2015,09,28,09,46,12.10
2015,09,28,09,47,12.10
2015,09,28,09,48,12.10
2015,09,28,09,49,12.20
2015,09,28,09,50,12.20
2015,09,28,09,51,12.20
2015,09,28,09,52,12.20
2015,09,28,09,53,12.20
2015,09,28,09,54,12.30
2015,09,28,09,55,12.30
2015,09,28,09,56,12.30
2015,09,28,09,57,12.30
2015,09,28,09,58,12.30
2015,09,28,09,59,12.40
2015,09,28,10,00,12.40
2015,09,28,10,01,12.40
2015,09,28,10,02,12.50
2015,09,28,10,03,12.50
2015,09,28,10,04,12.50
2015,09,28,10,05,12.50
2015,09,28,10,06,12.60
2015,09,28,10,07,12.60
2015,09,28,10,08,12.70
2015,09,28,10,09,12.70
2015,09,28,10,10,12.70
2015,09,28,10,11,12.80
2015,09,28,10,12,12.80
2015,09,28,10,13,12.80
2015,09,28,10,14,12.80
2015,09,28,10,15,12.80
2015,09,28,10,16,12.80
2015,09,28,10,17,12.90
2015,09,28,10,18,12.90
2015,09,28,10,19,12.90
2015,09,28,10,20,13.00
2015,09,28,10,21,13.00
2015,09,28,10,22,13.00
2015,09,28,10,23,13.00
2015,09,28,10,24,13.00
2015,09,28,10,25,13.00
2015,09,28,10,26,13.00
2015,09,28,10,27,13.10
2015,09,28,10,28,13.10
2015,09,28,10,29,13.10
2015,09,28,10,30,13.10
2015,09,28,10,31,13.20
2015,09,28,10,32,13.20
2015,09,28,10,33,13.20
2015,09,28,10,34,13.30
2015,09,28,10,35,13.30
2015,09,28,10,36,13.30
2015,09,28,10,37,13.30
2015,09,28,10,38,13.30
2015,09,28,10,39,13.30
2015,09,28,10,40,13.30
2015,09,28,10,41,13.40
2015,09,28,10,42,13.40
2015,09,28,10,43,13.40
2015,09,28,10,44,13.50
2015,09,28,10,45,13.50
2015,09,28,10,46,13.60
2015,09,28,10,47,13.60
2015,09,28,10,48,13.70
2015,09,28,10,49,13.70
2015,09,28,10,50,13.70
2015,09,28,10,51,13.70
2015,09,28,10,52,13.70
2015,09,28,10,53,13.80
2015,09,28,10,54,13.80
2015,09,28,10,55,13.80
2015,09,28,10,56,13.90
2015,09,28,10,57,13.90
2015,09,28,10,58,13.90
2015,09,28,10,59,14.00
2015,09,28,11,00,14.10
2015,09,28,11,01,14.10
2015,09,28,11,02,14.20
2015,09,28,11,03,14.20
2015,09,28,11,04,14.20
2015,09,28,11,05,14.20
2015,09,28,11,06,14.20
2015,09,28,11,07,14.20
2015,09,28,11,08,14.10
2015,09,28,11,09,14.20
2015,09,28,11,10,14.20
2015,09,28,11,11,14.20
2015,09,28,11,12,14.30
2015,09,28,11,13,14.30
2015,09,28,11,14,14.40
2015,09,28,11,15,14.40
2015,09,28,11,16,14.40
2015,09,28,11,17,14.50
2015,09,28,11,18,14.50
2015,09,28,11,19,14.50
2015,09,28,11,20,14.60
2015,09,28,11,21,14.60
2015,09,28,11,22,14.50
2015,09,28,11,23,14.50
2015,09,28,11,24,14.50
2015,09,28,11,25,14.50
2015,09,28,11,26,14.50
2015,09,28,11,27,14.50
2015,09,28,11,28,14.50
2015,09,28,11,29,14.40
2015,09,28,11,30,14.40
2015,09,28,11,31,14.50
2015,09,28,11,32,14.50
2015,09,28,11,33,14.50
2015,09,28,11,34,14.60
2015,09,28,11,35,14.60
2015,09,28,11,36,14.70
2015,09,28,11,37,14.70
2015,09,28,11,38,14.70
2015,09,28,11,39,14.60
2015,09,28,11,40,14.60
2015,09,28,11,41,14.60
2015,09,28,11,42,14.50
2015,09,28,11,43,14.50
2015,09,28,11,44,14.40
2015,09,28,11,45,14.40
2015,09,28,11,46,14.50
2015,09,28,11,47,14.50
2015,09,28,11,48,14.40
2015,09,28,11,49,14.40
2015,09,28,11,50,14.40
2015,09,28,11,51,14.40
2015,09,28,11,52,14.40
2015,09,28,11,53,14.40
2015,09,28,11,54,14.40
2015,09,28,11,55,14.40
2015,09,28,11,56,14.40
2015,09,28,11,57,14.50
2015,09,28,11,58,14.50
2015,09,28,11,59,14.60
2015,09,28,12,00,14.70
2015,09,28,12,01,14.70
2015,09,28,12,02,14.70
2015,09,28,12,03,14.80
2015,09,28,12,04,14.80
2015,09,28,12,05,14.80
2015,09,28,12,06,14.80
2015,09,28,12,07,14.80
2015,09,28,12,08,14.80
2015,09,28,12,09,14.80
2015,09,28,12,10,14.80
2015,09,28,12,11,14.80
2015,09,28,12,12,14.90
2015,09,28,12,13,14.90
2015,09,28,12,14,14.90
2015,09,28,12,15,14.90
2015,09,28,12,16,14.90
2015,09,28,12,17,15.00
2015,09,28,12,18,15.10
2015,09,28,12,19,15.20
2015,09,28,12,20,15.20
2015,09,28,12,21,15.30
2015,09,28,12,22,15.30
2015,09,28,12,23,15.30
2015,09,28,12,24,15.30
2015,09,28,12,25,15.30
2015,09,28,12,26,15.30
2015,09,28,12,27,15.30
2015,09,28,12,28,15.40
2015,09,28,12,29,15.40
2015,09,28,12,30,15.40
2015,09,28,12,31,15.50
2015,09,28,12,32,15.60
2015,09,28,12,33,15.60
2015,09,28,12,34,15.70
2015,09,28,12,35,15.70
2015,09,28,12,36,15.70
2015,09,28,12,37,15.80
2015,09,28,12,38,15.80
2015,09,28,12,39,15.80
2015,09,28,12,40,15.80
2015,09,28,12,41,15.80
2015,09,28,12,42,15.80
2015,09,28,12,43,15.80
2015,09,28,12,44,15.80
2015,09,28,12,45,15.80
2015,09,28,12,46,15.80
2015,09,28,12,47,15.80
2015,09,28,12,48,15.80
2015,09,28,12,49,15.80
2015,09,28,12,50,15.80
2015,09,28,12,51,15.80
2015,09,28,12,52,15.80
2015,09,28,12,53,15.80
2015,09,28,12,54,15.80
2015,09,28,12,55,15.80
2015,09,28,12,56,15.80
2015,09,28,12,57,15.90
2015,09,28,12,58,15.90
2015,09,28,12,59,16.00
2015,09,28,13,00,16.10
2015,09,28,13,01,16.10
2015,09,28,13,02,16.20
2015,09,28,13,03,16.20
2015,09,28,13,04,16.20
2015,09,28,13,05,16.20
2015,09,28,13,06,16.30
2015,09,28,13,07,16.30
2015,09,28,13,08,16.30
2015,09,28,13,09,16.30
2015,09,28,13,10,16.30
2015,09,28,13,11,16.30
2015,09,28,13,12,16.30
2015,09,28,13,13,16.30
2015,09,28,13,14,16.30
2015,09,28,13,15,16.30
2015,09,28,13,16,16.30
2015,09,28,13,17,16.30
2015,09,28,13,18,16.30
2015,09,28,13,19,16.30
2015,09,28,13,20,16.30
2015,09,28,13,21,16.30
2015,09,28,13,22,16.30
2015,09,28,13,23,16.30
2015,09,28,13,24,16.40
2015,09,28,13,25,16.40
2015,09,28,13,26,16.40
2015,09,28,13,27,16.40
2015,09,28,13,28,16.50
2015,09,28,13,29,16.50
2015,09,28,13,30,16.60
2015,09,28,13,31,16.60
2015,09,28,13,32,16.70
2015,09,28,13,33,16.70
2015,09,28,13,34,16.80
2015,09,28,13,35,16.80
2015,09,28,13,36,16.80
2015,09,28,13,37,16.80
2015,09,28,13,38,16.80
2015,09,28,13,39,16.80
2015,09,28,13,40,16.80
2015,09,28,13,41,16.90
2015,09,28,13,42,16.90
2015,09,28,13,43,16.90
2015,09,28,13,44,17.00
2015,09,28,13,45,17.00
2015,09,28,13,46,17.10
2015,09,28,13,47,17.10
2015,09,28,13,48,17.10
2015,09,28,13,49,17.20
2015,09,28,13,50,17.20
2015,09,28,13,51,17.20
2015,09,28,13,52,17.30
2015,09,28,13,53,17.30
2015,09,28,13,54,17.40
2015,09,28,13,55,17.40
2015,09,28,13,56,17.40
2015,09,28,13,57,17.40
2015,09,28,13,58,17.30
2015,09,28,13,59,17.30
2015,09,28,14,00,17.30
2015,09,28,14,01,17.30
2015,09,28,14,02,17.30
2015,09,28,14,03,17.30
2015,09,28,14,04,17.30
2015,09,28,14,05,17.30
2015,09,28,14,06,17.30
2015,09,28,14,07,17.30
2015,09,28,14,08,17.30
2015,09,28,14,09,17.30
2015,09,28,14,10,17.30
2015,09,28,14,11,17.30
2015,09,28,14,12,17.30
2015,09,28,14,13,17.40
2015,09,28,14,14,17.40
2015,09,28,14,15,17.40
2015,09,28,14,16,17.50
2015,09,28,14,17,17.50
2015,09,28,14,18,17.60
2015,09,28,14,19,17.60
2015,09,28,14,20,17.60
2015,09,28,14,21,17.60
2015,09,28,14,22,17.70
2015,09,28,14,23,17.70
2015,09,28,14,24,17.70
2015,09,28,14,25,17.70
2015,09,28,14,26,17.80
2015,09,28,14,27,17.80
2015,09,28,14,28,17.80
2015,09,28,14,29,17.90
2015,09,28,14,30,17.90
2015,09,28,14,31,17.90
2015,09,28,14,32,17.90
2015,09,28,14,33,17.80
2015,09,28,14,34,17.80
2015,09,28,14,35,17.80
2015,09,28,14,36,17.80
2015,09,28,14,37,17.80
2015,09,28,14,38,17.80
2015,09,28,14,39,17.90
2015,09,28,14,40,17.90
2015,09,28,14,41,17.90
2015,09,28,14,42,17.90
2015,09,28,14,43,17.90
2015,09,28,14,44,17.90
2015,09,28,14,45,17.90
2015,09,28,14,46,17.90
2015,09,28,14,47,17.90
2015,09,28,14,48,17.90
2015,09,28,14,49,17.90
2015,09,28,14,50,17.90
2015,09,28,14,51,17.90
2015,09,28,14,52,17.90
2015,09,28,14,53,17.90
2015,09,28,14,54,17.90
2015,09,28,14,55,17.90
2015,09,28,14,56,17.90
2015,09,28,14,57,17.90
2015,09,28,14,58,18.00
2015,09,28,14,59,18.00
2015,09,28,15,00,18.00
2015,09,28,15,01,18.00
2015,09,28,15,02,18.10
2015,09,28,15,03,18.10
2015,09,28,15,04,18.10
2015,09,28,15,05,18.10
2015,09,28,15,06,18.10
2015,09,28,15,07,18.20
2015,09,28,15,08,18.20
2015,09,28,15,09,18.20
2015,09,28,15,10,18.30
2015,09,28,15,11,18.30
2015,09,28,15,12,18.20
2015,09,28,15,13,18.20
2015,09,28,15,14,18.20
2015,09,28,15,15,18.20
2015,09,28,15,16,18.20
2015,09,28,15,17,18.20
2015,09,28,15,18,18.20
2015,09,28,15,19,18.20
2015,09,28,15,20,18.20
2015,09,28,15,21,18.20
2015,09,28,15,22,18.20
2015,09,28,15,23,18.20
2015,09,28,15,24,18.20
2015,09,28,15,25,18.20
2015,09,28,15,26,18.20
2015,09,28,15,27,18.20
2015,09,28,15,28,18.20
2015,09,28,15,29,18.20
2015,09,28,15,30,18.20
2015,09,28,15,31,18.20
2015,09,28,15,32,18.10
2015,09,28,15,33,18.10
2015,09,28,15,34,18.10
2015,09,28,15,35,18.10
2015,09,28,15,36,18.10
2015,09,28,15,37,18.10
2015,09,28,15,38,18.00
2015,09,28,15,39,18.00
2015,09,28,15,40,18.00
2015,09,28,15,41,17.90
2015,09,28,15,42,18.00
2015,09,28,15,43,18.00
2015,09,28,15,44,18.00
2015,09,28,15,45,18.00
2015,09,28,15,46,18.00
2015,09,28,15,47,17.90
2015,09,28,15,48,17.90
2015,09,28,15,49,17.90
2015,09,28,15,50,17.90
2015,09,28,15,51,17.90
2015,09,28,15,52,17.90
2015,09,28,15,53,17.90
2015,09,28,15,54,17.90
2015,09,28,15,55,17.90
2015,09,28,15,56,18.00
2015,09,28,15,57,18.00
2015,09,28,15,58,18.10
2015,09,28,15,59,18.10
2015,09,28,16,00,18.10
2015,09,28,16,01,18.10
2015,09,28,16,02,18.10
2015,09,28,16,03,18.10
2015,09,28,16,04,18.10
2015,09,28,16,05,18.10
2015,09,28,16,06,18.10
2015,09,28,16,07,18.10
2015,09,28,16,08,18.10
2015,09,28,16,09,18.10
2015,09,28,16,10,18.10
2015,09,28,16,11,18.10
2015,09,28,16,12,18.10
2015,09,28,16,13,18.10
2015,09,28,16,14,18.10
2015,09,28,16,15,18.00
2015,09,28,16,16,18.00
2015,09,28,16,17,17.90
2015,09,28,16,18,17.90
2015,09,28,16,19,17.90
2015,09,28,16,20,17.90
2015,09,28,16,21,17.90
2015,09,28,16,22,17.90
2015,09,28,16,23,17.90
2015,09,28,16,24,17.90
2015,09,28,16,25,17.90
2015,09,28,16,26,17.90
2015,09,28,16,27,17.90
2015,09,28,16,28,17.80
2015,09,28,16,29,17.80
2015,09,28,16,30,17.80
2015,09,28,16,31,17.80
2015,09,28,16,32,17.80
2015,09,28,16,33,17.80
2015,09,28,16,34,17.80
2015,09,28,16,35,17.80
2015,09,28,16,36,17.80
2015,09,28,16,37,17.80
2015,09,28,16,38,17.80
2015,09,28,16,39,17.80
2015,09,28,16,40,17.70
2015,09,28,16,41,17.70
2015,09,28,16,42,17.70
2015,09,28,16,43,17.70
2015,09,28,16,44,17.70
2015,09,28,16,45,17.70
2015,09,28,16,46,17.70
2015,09,28,16,47,17.70
2015,09,28,16,48,17.70
2015,09,28,16,49,17.70
2015,09,28,16,50,17.70
2015,09,28,16,51,17.80
2015,09,28,16,52,17.80
2015,09,28,16,53,17.80
2015,09,28,16,54,17.80
2015,09,28,16,55,17.80
2015,09,28,16,56,17.80
2015,09,28,16,57,17.80
2015,09,28,16,58,17.80
2015,09,28,16,59,17.80
2015,09,28,17,00,17.80
2015,09,28,17,01,17.80
2015,09,28,17,02,17.80
2015,09,28,17,03,17.80
2015,09,28,17,04,17.80
2015,09,28,17,05,17.80
2015,09,28,17,06,17.80
2015,09,28,17,07,17.80
2015,09,28,17,08,17.70
2015,09,28,17,09,17.70
2015,09,28,17,10,17.70
2015,09,28,17,11,17.70
2015,09,28,17,12,17.60
2015,09,28,17,13,17.60
2015,09,28,17,14,17.60
2015,09,28,17,15,17.60
2015,09,28,17,16,17.60
2015,09,28,17,17,17.60
2015,09,28,17,18,17.50
2015,09,28,17,19,17.50
2015,09,28,17,20,17.50
2015,09,28,17,21,17.50
2015,09,28,17,22,17.40
2015,09,28,17,23,17.40
2015,09,28,17,24,17.40
2015,09,28,17,25,17.40
2015,09,28,17,26,17.40
2015,09,28,17,27,17.40
2015,09,28,17,28,17.40
2015,09,28,17,29,17.40
2015,09,28,17,30,17.40
2015,09,28,17,31,17.40
2015,09,28,17,32,17.40
2015,09,28,17,33,17.40
2015,09,28,17,34,17.40
2015,09,28,17,35,17.40
2015,09,28,17,36,17.40